COSMOS 86

Satellite information

Favourite Embed

Satellite Type and Status

PAYLOADIN ORBIT

Key statistics

Satellite COSMOS 86 at a glance.

Uptime

22008

Days in orbit

Revolutions

≈ 12.5

Per day

Orbit

LEO

Low Earth Orbit

Inclination

56.1

Latest

Satellite identification and parameters

Extended collection of information and parameters for COSMOS 86.

Object identification

Identified? True

Debris? False

Object name: COSMOS 86

International designator: 1965-073A

Object number (NORAD): 1584

Object ID (CCSDS): 1584

Country: COMMONWEALTH OF INDEPENDENT STATES (CIS)

Current information (Y/N): Y

RCS size: MEDIUM

Orbital parameters

Period: 115.024 minutes

Inclination: 56.0587 deg

SMA: 7834.625 km

Apoapsis: 1625.084 km

Periapsis: 1287.896 km

RAAN: 268.7098 deg

Eccentricy: 0.02151909

Argument of periapsis: 39.8826 deg

Mean anomaly: 30.0316 deg

Mean motion: 12.51916764 rev/day

Mean motion (dot): -0.0000007 rev/day2

B* drag term: 0.0001586 1/REarth

Two-line elements (TLE)

Creation date: Dec. 19, 2025, 2:08 a.m.

Reference frame: TEME

Reference center: EARTH

Epoch: Dec. 18, 2025, 10:04 p.m. UTC

TLE line 0: 0 COSMOS 86

TLE line 1: 1 01584U 65073A 25352.91946398 -.00000070 00000-0 15860-3 0 9996

TLE line 2: 2 01584 56.0587 268.7098 0215191 39.8826 30.0316 12.51916764754872

Live tracking on map

Real-time ground track for satellite COSMOS 86.

In-orbit conjunctions

There are no conjunctions computed for COSMOS 86, at the moment. Check back to stay up to date, as we update our databases every day.

Go to all conjunctions

Associated space launch

The Strela-1 satellites were prototype store-dump communications satellites for tactical communication.

COSMOS 86 was lifted into orbit during the mission ‘Kosmos 65S3 | Strela-1 25 to 29’, on board a Kosmos 65S3 space rocket.

The launch took place on Sept. 18, 1965, 7:59 a.m. from 41/15.

For more information about the launch, click the button.

Launch to space Kosmos 65S3 | Strela-1 25 to 29
Kosmos 65S3 | Strela-1 25 to 29

Agency: N/A

Status: Launch Successful

Launch date: Sept. 18, 1965, 7:59 a.m. UTC

Rocket: Kosmos 65S3

Launch pad: 41/15

Location: Baikonur Cosmodrome, Republic of Kazakhstan

...

Latest news about this satellite

There are no fresh news available about this satellite. Check back as we update our databases every day.


Newsletter sign-up

Weekly statistics, charts and insights to help you stay on top of the space industry.